Location: *
(44.6480°S, 51.1140°W)
Time: 01:44:25
(UTC+00:00)

Daily predictions for brighter satellites

Satellite Brightness Start Highest point End
(mag) Time Altitude Azimuth Time Altitude Azimuth Time Altitude Azimuth
Cosmos 2292 Rocket 4.0 00:01:47 10° NNW 00:05:16 60° WSW 00:09:51 10° S
H-2A R/B 3.9 00:07:23 10° SE 00:10:30 15° E 00:13:13 11° ENE
Cosmos 1709 Rocket 4.1 00:07:12 10° N 00:13:36 76° E 00:20:01 10° S
Cosmos 1758 3.5 00:13:48 10° N 00:17:44 57° E 00:21:46 10° SSE
Meteor 1-21 Rocket 4.4 00:14:21 10° S 00:19:57 57° ESE 00:24:42 14° NNE
Cosmos 1461 4.4 00:17:08 10° SSW 00:20:27 24° SE 00:23:42 10° E
Cosmos 1812 Rocket 3.6 00:19:37 10° N 00:24:05 72° E 00:28:36 10° SSE
Cosmos 1400 Rocket 4.2 00:22:10 10° SSE 00:25:40 26° ESE 00:28:05 15° ENE
Cosmos 1076 Rocket 4.3 00:27:59 10° S 00:32:04 38° ESE 00:34:46 18° NE
Cosmos 1805 3.9 00:28:35 10° NNW 00:32:28 58° W 00:36:26 10° S
ATLAS 3B R/B 2.7 00:28:27 10° NNW 00:35:08 72° ENE 00:42:10 10° SE
Cosmos 1302 Rocket 4.0 00:30:07 10° SSW 00:35:25 80° ESE 00:39:25 18° NNE
ERBS 3.1 00:33:01 10° WSW 00:36:26 45° NW 00:38:31 20° NNE
Cosmos 2237 Rocket 4.0 00:32:04 10° SW 00:36:42 26° WNW 00:41:19 10° NNW
NOAA 11 4.3 00:31:27 10° SSE 00:36:53 56° E 00:41:55 12° N
Lacrosse 4 Rocket 1.9 00:32:44 10° SSW 00:37:14 57° ESE 00:40:20 19° NE
Okean 3 Rocket 4.0 00:33:05 10° S 00:37:26 48° ESE 00:40:17 20° NE
Cosmos 1939 Rocket 3.6 00:33:43 10° S 00:37:51 58° WSW 00:41:52 10° NNW
Lacrosse 5 3.3 00:33:02 10° W 00:37:55 41° SSW 00:42:50 10° SE
Cosmos 2227 Rocket 3.9 00:37:02 10° WNW 00:42:16 37° SW 00:47:33 10° SSE
Cosmos 2074 Rocket 4.2 00:38:47 14° NNE 00:44:02 56° E 00:50:11 10° SSE
Helios 1A 3.7 00:40:26 10° SSE 00:44:25 37° E 00:46:42 21° NNE
Cosmos 1315 Rocket 4.4 00:43:17 10° SSE 00:46:40 23° ESE 00:48:39 17° ENE
Cosmos 1470 2.8 00:43:44 16° N 00:46:50 70° E 00:50:52 10° SSE
ERS-1 Rocket 3.6 00:42:10 10° SSE 00:46:56 38° E 00:49:51 20° NNE
Terra 4.0 00:47:34 10° E 00:48:11 10° E 00:48:49 10° E
ATLAS 5 CENTAUR R/B 4.1 00:47:12 10° WSW 00:50:14 16° WNW 00:53:06 10° NW
OAO 3 Rocket 4.3 00:47:08 10° NW 00:51:13 26° N 00:52:38 22° NNE
Tiangong 1 1.2 00:51:16 10° WNW 00:53:18 35° NNW 00:53:18 35° NNW
Cosmos 1733 3.3 00:50:37 14° NNW 00:53:59 81° W 00:57:58 10° S
Spot 2 Rocket 4.4 00:49:17 10° S 00:54:17 52° WSW 00:59:17 10° NW
Cosmos 1766 Rocket 4.3 00:52:01 10° S 00:56:21 42° ESE 00:58:39 24° NE
Cosmos 1674 3.7 00:54:37 10° SSW 00:58:18 42° W 01:01:19 14° NNW
BREEZE-M DEB (TANK) 4.2 00:56:44 10° WSW 01:01:51 38° S 01:04:18 10° ESE
CZ-4B R/B 3.8 01:03:24 24° NE 01:06:17 57° ESE 01:11:23 10° S
Cosmos-2242 3.5 01:04:35 27° NE 01:06:23 42° E 01:10:30 10° SSE
deb Chang Zheng 4 4.0 01:05:38 26° NE 01:07:46 49° ESE 01:12:01 10° S
SL-14 R/B 3.2 01:05:14 10° S 01:09:12 79° E 01:11:00 31° NNE
Cosmos 2297 Rocket 4.3 01:04:23 10° WNW 01:09:16 28° SW 01:14:12 10° S
Resurs 01 Rocket 4.0 01:09:04 10° SSW 01:12:39 23° WSW 01:16:11 10° WNW
Cosmos 2184 Rocket 4.1 01:07:19 15° N 01:12:48 88° E 01:19:18 10° S
Cosmos 2251 Rocket 4.2 01:09:13 10° NW 01:14:22 54° WSW 01:19:37 10° SSE
MetOp-B 4.1 01:10:11 10° SSE 01:15:38 70° ENE 01:19:13 22° N
Cosmos 1867 3.5 01:12:37 10° SW 01:18:05 86° WNW 01:21:00 28° NNE
CENTAUR R/B 3.8 01:16:44 23° NE 01:19:38 29° ENE 01:25:41 10° ESE
H-2A R/B 3.9 01:05:09 10° W 01:24:58 31° NW 01:28:16 22° N
Cosmos 1703 4.2 01:21:28 10° S 01:25:10 35° ESE 01:26:17 29° ENE
Cosmos 2227 4.2 01:19:58 10° NNW 01:25:38 84° WSW 01:31:22 10° SSE
SPOT 1/Viking Rocket 4.0 01:21:43 10° SSE 01:26:45 45° E 01:28:49 30° NNE
CZ-2C R/B 2.8 01:24:41 26° N 01:28:00 83° WNW 01:33:44 10° SSW
CZ-4 R/B 4.4 01:27:37 24° N 01:30:35 57° W 01:35:38 10° SSW
SL-16 R/B 4.0 01:27:24 10° SW 01:31:44 22° W 01:35:51 11° NNW
Cosmos 1992 Rocket 4.0 01:26:38 10° SSW 01:31:59 85° ESE 01:34:29 32° NNE
USA 215 3.2 01:26:15 10° SE 01:32:55 82° NE 01:39:32 10° NW
ARGOS 3.3 01:32:25 10° SSE 01:37:55 78° WSW 01:41:45 20° NNW
Cosmos 1603 4.1 01:35:07 10° SSW 01:40:38 55° WNW 01:43:25 28° N
Cosmos 2221 4.1 01:41:55 20° E 01:42:32 21° E 01:45:49 10° SE
YAOGAN 11 4.5 01:41:47 10° SSE 01:46:20 51° E 01:47:33 40° NNE
Cosmos 2263 Rocket 2.2 01:44:31 30° N 01:47:16 63° ENE 01:52:55 10° SSE
SPOT 5 3.1 01:43:39 10° SSE 01:49:07 86° ENE 01:51:58 29° NNW
Meteor 2-15 4.5 01:43:52 10° S 01:50:02 71° E 01:52:55 33° NNE
H-2A R/B 2.2 01:44:58 10° SSE 01:50:32 80° WSW 01:53:51 25° NNW
Nadezhda 3 Rocket 4.0 01:47:35 10° S 01:53:54 78° W 01:57:07 31° N
USA 81 4.3 01:50:30 10° S 01:55:48 66° W 01:58:21 31° NNW
Cosmos 1295 Rocket 4.4 01:56:12 33° N 01:59:04 72° E 02:05:15 10° SSE
Cosmos 1626 2.4 01:55:33 10° SSW 01:59:20 60° W 02:00:08 47° NNW
Cosmos 1461 3.5 01:56:01 10° SW 01:59:41 37° WNW 02:00:11 36° NW
Meteor 2-15 Rocket 4.5 01:53:43 10° S 01:59:53 71° E 02:02:36 35° NNE
Cosmos 2058 2.9 01:57:54 10° S 02:02:11 80° E 02:03:07 53° NNE
Mayak -1.2 02:02:03 48° NE 02:03:09 74° ESE 02:07:29 10° S
SAR-Lupe-4 3.5 01:59:33 10° SSE 02:03:13 86° WSW 02:03:48 61° NNW
USA 267 3.4 02:00:43 20° ENE 02:05:36 75° SE 02:12:13 10° SW
ADEOS Rocket 4.3 02:03:36 17° ENE 02:06:54 28° ESE 02:11:56 10° S
Cosmos 2151 2.9 02:05:42 10° S 02:10:04 87° W 02:11:04 53° N
Landsat 7 3.8 02:06:34 10° SSE 02:11:27 90° ESE 02:13:10 41° NNW
NOSS 3-2 (A) 4.5 02:04:32 10° NW 02:12:33 61° SW 02:19:52 10° SSE
Lacrosse 4 Rocket 3.5 02:12:33 10° WSW 02:15:31 17° WNW 02:16:39 16° NW
Cosmos 1809 Rocket 4.5 02:14:10 31° NNW 02:17:18 78° W 02:23:30 10° S
Cosmos 1943 3.7 02:12:27 10° SW 02:18:00 51° WNW 02:20:03 35° NNW
Meteor 2-14 Rocket 4.4 02:15:57 36° N 02:18:39 82° E 02:24:50 10° S
NOSS 3-2 (C) 4.3 02:11:27 10° NW 02:19:35 69° SW 02:27:01 10° SE
Cosmos 1500 Rocket 3.5 02:16:20 10° SSW 02:20:47 76° W 02:21:43 53° NNW
Cosmos 1743 Rocket 3.9 02:16:50 10° SSW 02:21:14 58° W 02:22:22 43° NNW
SAR-Lupe-1 4.5 02:19:35 10° S 02:23:13 59° WSW 02:23:49 50° WNW
Cosmos 1315 Rocket 4.2 02:19:36 10° SSW 02:23:15 30° W 02:24:22 26° WNW
Cosmos 1726 2.7 02:24:38 44° E 02:24:38 44° E 02:28:09 10° SSE
Meteor 2-1 Rocket 4.3 02:22:08 36° NNW 02:24:39 85° W 02:30:38 10° S
Sich 1 4.4 02:21:38 10° SSE 02:25:31 28° ESE 02:26:38 25° E
ATLAS 3B R/B 4.4 02:20:22 10° W 02:26:28 33° SW 02:32:51 10° SSE
Terra 1.8 02:21:45 10° SSE 02:26:38 88° ENE 02:28:03 47° NNW
SL-8 Rocket 3.9 02:26:52 38° N 02:29:30 86° E 02:35:50 10° S
Meteor 2-21 Rocket 4.5 02:29:13 35° NNW 02:32:01 78° W 02:38:13 10° S
Cosmos 1727 Rocket 4.2 02:27:22 10° S 02:33:47 63° E 02:36:23 36° NE
BREEZE-M DEB (TANK) 4.4 02:32:07 10° W 02:33:27 19° WNW 02:33:27 19° WNW
Cosmos 1954 Rocket 4.1 02:35:28 47° NNE 02:36:44 60° ENE 02:42:02 10° SSE
Cosmos 407 Rocket 3.6 02:34:48 36° NNW 02:37:04 76° WSW 02:42:31 10° SSE
Cosmos 2278 Rocket 4.2 02:39:10 13° ENE 02:39:56 13° E 02:42:29 10° ESE
Cosmos 1140 Rocket 3.6 02:41:06 48° NNE 02:42:16 61° ENE 02:47:30 10° SSE
Cosmos 1633 Rocket 4.2 02:38:16 10° S 02:42:22 33° ESE 02:43:25 29° ENE
Cosmos 1844 Rocket 3.3 02:43:02 37° NE 02:44:03 40° ENE 02:49:20 10° SE
ISS -1.5 02:47:45 17° ESE 02:47:45 17° ESE 02:48:42 10° ESE
Cosmos 1300 3.1 02:46:52 49° E 02:46:52 49° E 02:50:38 10° SSE
Cosmos 371 Rocket 4.4 02:44:43 10° S 02:49:19 37° ESE 02:51:19 26° ENE
Cosmos 2366 rocket 4.0 02:47:40 40° N 02:50:10 88° W 02:56:30 10° S
SL-08 R/B 4.4 02:47:51 41° N 02:50:13 86° E 02:56:29 10° S
Cosmos 1339 Rocket 4.5 02:47:06 10° S 02:53:38 90° WNW 02:56:02 42° N
Meteor 2-10 3.9 02:56:58 52° NNE 02:58:06 70° E 03:03:15 10° SSE
H-2A R/B 2.5 02:55:14 10° SSE 02:59:15 44° E 02:59:24 44° ENE
COSMOS 2455 3.0 02:57:52 44° NNE 02:59:26 57° ENE 03:05:21 10° SE
Exosat Rocket 4.1 03:04:06 39° NE 03:04:51 42° ENE 03:09:38 10° SE
Cosmos 2218 Rocket 4.3 03:04:06 34° NW 03:06:47 61° W 03:12:58 10° S
H-2A R/B 4.0 03:06:06 25° ENE 03:07:43 32° ESE 03:11:48 10° S
Cosmos 1805 Rocket 3.6 03:04:46 10° SSW 03:09:13 69° W 03:09:49 60° NW
CENTAUR R/B 3.0 03:03:50 18° NW 03:09:57 73° SW 03:16:58 10° SE
Cosmos 2228 Rocket 4.3 03:10:05 30° ENE 03:10:50 32° E 03:14:57 10° SSE
Cosmos 1570 Rocket 4.4 03:06:46 10° SSW 03:12:05 60° ESE 03:14:02 37° NE
Resurs 1-4 Rocket 4.4 03:09:55 10° E 03:13:23 18° ESE 03:16:53 10° SSE
USA 215 4.4 03:09:25 10° SE 03:15:35 43° SSW 03:21:45 10° W
Cosmos 1151 Rocket 4.4 03:15:52 27° ENE 03:16:32 28° E 03:20:21 10° SSE
PSLV R/B 3.5 03:16:44 62° NE 03:17:20 74° ESE 03:21:39 10° S
Spot 4 4.0 03:12:26 10° S 03:17:21 70° WSW 03:18:40 47° NW
Cosmos 2082 Rocket 4.4 03:13:18 10° S 03:17:32 21° SE 03:21:45 10° E
Cosmos 2098 Rocket 3.3 03:16:43 56° NNE 03:17:38 72° E 03:23:18 10° SSE
Cosmos 614 Rocket 4.0 03:17:02 45° NW 03:18:35 71° WSW 03:23:47 10° SSE
CZ-2C R/B 3.1 03:13:51 10° SSE 03:19:26 84° WSW 03:21:00 48° NNW
Cosmos 2221 3.5 03:18:46 33° WNW 03:19:49 38° WSW 03:24:00 10° S
CZ-4C R/B 3.3 03:18:14 10° SSE 03:22:26 67° ENE 03:22:36 66° ENE
COSMOS 2406 3.2 03:17:31 10° SSW 03:23:21 88° ESE 03:25:21 43° NNE
Cosmos 44 3.8 03:20:40 10° SSW 03:25:37 57° SE 03:27:40 32° ENE
Cosmos 332 Rocket 3.7 03:21:15 10° SSW 03:26:09 87° ESE 03:27:11 56° NNE
In-Cosmos 22 Rocket 4.2 03:21:51 10° SSW 03:27:36 79° W 03:29:23 47° N
Cosmos 1892 3.1 03:23:57 10° S 03:27:47 53° ESE 03:28:02 52° E
Cosmos 1666 Rocket 3.5 03:23:38 10° SSW 03:28:03 68° W 03:28:31 62° NW
Cosmos 2208 Rocket 4.1 03:24:19 10° SSW 03:29:44 76° ESE 03:31:28 44° NE
Cosmos 2263 Rocket 4.1 03:27:04 10° WNW 03:31:39 24° SW 03:36:19 10° S
Cosmos 1933 Rocket 4.1 03:30:59 10° S 03:35:20 52° ESE 03:36:18 43° ENE
CZ-2D R/B 3.9 03:32:32 12° ENE 03:36:16 26° ESE 03:40:34 10° S
Mayak 1.3 03:38:42 11° W 03:39:18 11° W 03:40:29 10° WSW
COBE Rocket 4.4 03:39:00 40° WNW 03:39:39 42° W 03:44:09 10° SSW
Cosmos 468 Rocket 4.4 03:35:38 10° SSW 03:41:00 62° ESE 03:43:16 34° NE
CZ-4C R/B 3.6 03:39:33 10° SSW 03:45:07 36° SE 03:50:01 10° ENE
Cosmos 1850 Rocket 4.1 03:44:38 45° NW 03:46:18 75° WSW 03:51:44 10° SSE
Meteor 2-3 Rocket 3.8 03:42:19 10° S 03:48:14 81° E 03:50:23 41° NNE
USA 267 3.8 03:48:02 34° NW 03:48:55 35° NW 03:54:54 10° WSW
ADEOS Rocket 3.3 03:50:33 38° NW 03:52:06 48° W 03:57:57 10° SSW
IRS-P3 4.4 03:54:17 33° NE 03:56:36 64° ESE 04:01:58 10° S
Cosmos 1455 2.1 03:57:57 72° NE 03:58:13 77° E 04:02:11 10° SSE
Cosmos 1328 Rocket 3.8 04:00:21 51° NW 04:01:08 61° W 04:05:34 10° S
Sich 1 4.3 03:59:20 10° SSW 04:03:08 28° W 04:03:36 27° W
Terra 4.3 04:01:31 10° SSW 04:03:38 13° WSW 04:05:44 10° W
SL-27 R/B 3.5 04:00:56 10° S 04:04:22 40° ESE 04:05:09 34° E
Cosmos 2123 Rocket 4.0 03:58:23 10° S 04:04:43 85° E 04:07:28 36° NNE
Lacrosse 5 4.2 04:02:18 10° SW 04:06:34 25° SSE 04:10:49 10° ESE
AQUA 4.2 04:06:58 34° NE 04:08:54 61° ESE 04:13:41 10° S
ALOS 2 2.8 04:06:10 10° S 04:10:36 63° WSW 04:11:35 49° NW
Cosmos 841 Rocket 4.0 04:11:32 10° SSW 04:16:41 55° ESE 04:19:57 22° NE
NPP 3.6 04:16:10 40° N 04:18:15 85° WNW 04:23:46 10° SSW
IKONOS-2 4.4 04:16:52 10° SSE 04:21:12 87° WSW 04:22:06 56° NNW
ISS -2.2 04:20:21 21° WSW 04:22:03 34° SSW 04:25:09 10° SE
Cosmos 1515 Rocket 4.0 04:21:23 43° WNW 04:22:18 51° WSW 04:26:39 10° S
Cosmos 2278 Rocket 2.1 04:21:00 41° NNW 04:23:07 89° ENE 04:28:52 10° SSE
Cosmos 1408 2.7 04:20:06 10° S 04:23:57 77° E 04:24:31 61° NE
Cosmos 1844 Rocket 3.9 04:24:41 19° WNW 04:28:00 35° SW 04:33:13 10° S
CZ-4C R/B 3.9 04:25:49 10° SSE 04:29:12 39° E 04:29:45 36° ENE
Cosmos 371 Rocket 4.4 04:25:25 10° SW 04:29:34 28° W 04:29:58 27° WNW
MOS 1 Rocket 3.5 04:28:20 40° N 04:30:19 77° WNW 04:35:49 10° SSW
Cosmos 1470 Rocket 4.5 04:27:18 10° SSW 04:31:26 34° W 04:32:06 33° WNW
Meteor 2-10 Rocket 4.5 04:29:25 24° NE 04:31:50 39° E 04:36:33 10° SSE
H-2A R/B 4.0 04:32:04 10° SSW 04:34:57 18° WSW 04:36:31 15° W
Cosmos 1340 3.8 04:35:23 31° NE 04:36:24 36° E 04:39:58 10° SSE
ARIANE 5 R/B 2.9 04:34:05 23° NE 04:37:17 61° ESE 04:42:23 10° S
CBERS-1 4.1 04:36:24 40° NNW 04:38:07 63° WNW 04:43:17 10° SSW
Cosmos 44 Rocket 3.7 04:34:39 10° SW 04:39:19 41° WNW 04:39:50 39° NW
Cosmos 1814 Rocket 4.0 04:36:45 10° SSW 04:41:54 63° WNW 04:43:46 38° N
H-2A R/B 3.7 04:42:42 28° WNW 04:43:13 29° W 04:47:12 10° SW
SeaSat 1 4.4 04:41:27 10° ENE 04:45:41 29° SE 04:49:57 10° S
COSMOS 2455 4.3 04:40:58 12° WNW 04:45:43 31° SW 04:51:02 10° SSE
Spot 4 Rocket 4.1 04:43:03 28° NNE 04:45:53 81° ESE 04:51:08 10° SSW
ADEOS 4.2 04:41:59 17° NE 04:45:57 55° ESE 04:51:08 10° S
Cosmos 2297 4.0 04:43:56 33° N 04:46:23 59° ENE 04:51:58 10° SSE
Cosmos 1689 Rocket 3.7 04:44:29 10° SE 04:47:22 29° E 04:48:00 27° ENE
Helios 1A Rocket 2.9 04:47:50 46° N 04:48:57 70° WNW 04:53:12 10° SSW
Cosmos 1869 3.3 04:49:10 49° NW 04:50:04 67° W 04:54:06 10° S
Cosmos 1459 Rocket 4.5 04:47:16 23° NNE 04:51:11 56° E 04:57:25 10° SSE
Resurs 1-4 Rocket 2.1 04:50:06 32° N 04:52:36 74° WNW 04:58:00 10° SSW
Cosmos 1862 3.6 04:48:41 10° S 04:52:44 64° E 04:54:27 32° NNE
Cosmos 1151 Rocket 4.4 04:52:43 24° WNW 04:54:01 28° WSW 04:57:54 10° SSW
Cosmos 1346 Rocket 3.7 04:53:32 31° WNW 04:54:26 36° WSW 04:58:09 10° S
Cosmos 1825 2.5 04:51:11 10° SSW 04:54:55 48° W 04:55:27 44° WNW
USA 32 4.2 04:52:32 10° S 04:57:51 71° E 05:01:05 24° NNE
Milstar 3 4.3 04:53:58 21° NW 04:59:32 31° N 05:06:35 10° NE
GP-B 4.4 04:56:15 10° SSE 05:00:28 37° E 05:03:34 16° NNE
Cosmos 1763 Rocket 3.9 04:55:52 10° SSW 05:00:58 47° WNW 05:02:54 33° NNW
Cosmos 2082 Rocket 2.1 04:56:32 10° SSW 05:02:18 79° WNW 05:06:25 20° NNE
CZ-4B R/B 1.7 05:00:55 10° SSE 05:04:17 58° E 05:05:05 43° NNE
COSMOS 2487 4.0 05:01:15 10° S 05:04:35 34° ESE 05:07:53 10° NE
Iridium 4 Rocket 3.8 05:02:41 28° N 05:05:52 86° W 05:11:55 10° S
Cosmos 1833 Rocket 2.6 05:01:14 10° SSW 05:06:54 70° WNW 05:10:39 22° N
Cosmos 1869 Rocket 3.8 05:02:56 10° SSW 05:07:17 54° W 05:08:46 36° NNW
Cosmos 2173 Rocket 4.1 05:07:21 24° N 05:11:20 78° E 05:17:35 10° S
CZ-2D R/B 2.5 05:13:51 29° NNW 05:16:04 46° W 05:21:10 10° SSW
GRACE-2 4.0 05:17:22 50° SE 05:17:22 50° SE 05:19:10 10° S
Cosmos 836 Rocket 4.5 05:12:11 10° SSW 05:17:30 89° WNW 05:21:56 15° NNE
Cosmos 1802 Rocket 4.2 05:13:45 21° N 05:18:14 76° E 05:24:41 10° S
ADEOS II 3.3 05:14:27 10° NE 05:19:23 41° ESE 05:24:23 10° S
Cosmos 292 Rocket 3.9 05:15:33 10° SSW 05:20:29 76° ESE 05:25:16 10° NNE
Cosmos 1437 2.7 05:23:52 44° NNW 05:24:44 71° W 05:28:02 10° S
BREEZE-M DEB (TANK) 1.8 05:26:17 23° WSW 05:27:28 64° S 05:31:07 10° E
Cosmos 1933 3.3 05:26:21 30° N 05:28:23 86° W 05:32:36 10° S
Cosmos 1707 Rocket 4.1 05:29:20 27° NW 05:31:20 45° WSW 05:35:43 10° S
Cosmos 2084 Rocket 4.2 05:30:57 22° WNW 05:33:35 50° SW 05:38:10 10° SSE
CZ-4C R/B 2.4 05:28:19 10° SW 05:33:43 43° WNW 05:37:07 18° N
Cosmos 1503 Rocket 4.1 05:30:30 25° NNW 05:33:43 81° WSW 05:39:12 10° SSE
Cosmos 2369 Rocket 3.6 05:35:56 10° NNE 05:40:54 31° ENE 05:45:55 10° SE
Landsat 5 3.9 05:43:50 10° S 05:47:33 42° WSW 05:49:36 23° NW
Cosmos 1733 Rocket 3.1 05:45:45 10° SSW 05:50:08 66° W 05:53:25 17° N
Lacrosse 5 2.3 05:45:12 10° SW 05:50:22 66° SE 05:55:30 10° ENE
NOSS 3-1 (C) 4.5 05:47:41 15° NNW 05:54:37 58° ENE 06:02:06 10° SE
Cosmos 783 Rocket 4.5 05:49:40 10° SSW 05:54:58 83° WNW 06:00:14 10° NNE
Aureole 3 3.2 05:52:13 10° SSW 05:55:31 43° W 05:56:53 25° NNW
ISS -1.3 05:56:23 10° SW 05:59:10 24° S 06:01:58 10° ESE
Cosmos 540 Rocket 4.2 05:55:57 10° SW 06:00:38 35° WNW 06:04:08 16° NNW
Tsikada Rocket 4.0 05:54:45 10° S 06:01:13 87° W 06:07:32 10° N
UNKNOWN OBJECT B 3.5 06:02:04 20° NNW 06:04:05 33° W 06:07:36 10° SSW
CZ-4B R/B 4.0 06:01:46 10° NE 06:05:40 45° ESE 06:09:27 10° S
Cosmos 2278 Rocket 4.2 06:04:09 10° W 06:08:02 18° SW 06:11:57 10° S
Cosmos 1908 Rocket 3.6 06:08:00 10° S 06:12:34 88° W 06:17:02 10° N
ARIANE 5 R/B 4.1 06:14:25 14° WNW 06:16:48 18° W 06:20:18 10° SW
Okean O Rocket 2.7 06:13:20 10° NE 06:17:33 48° ESE 06:21:49 10° S
Atlas Centaur 2 3.8 06:15:29 11° N 06:18:06 15° NNE 06:21:20 10° NE
Cosmos 1782 3.2 06:14:51 10° N 06:18:53 67° E 06:23:01 10° SSE
Cosmos 1689 Rocket 4.4 06:16:56 10° SSW 06:18:55 15° WSW 06:20:40 11° W
CZ-4B R/B 4.0 06:14:59 10° NE 06:20:09 53° ESE 06:25:22 10° S
SeaSat 1 2.7 06:18:14 10° N 06:23:00 47° WNW 06:27:49 10° SW
Meteor 1-14 Rocket 4.5 06:17:27 10° SSW 06:23:27 62° W 06:29:20 10° N
Cosmos 1862 Rocket 4.4 06:22:14 14° NW 06:25:32 36° WSW 06:29:39 10° S
UNK 4.1 06:20:51 10° SSE 06:25:36 69° ENE 06:30:15 10° N
Cosmos 1943 Rocket 3.0 06:21:28 10° N 06:26:45 46° ENE 06:32:03 10° SE
USA 229 DEB 4.2 06:21:58 12° NW 06:28:50 61° SW 06:36:01 10° SSE
USA 229 4.2 06:22:04 12° NW 06:28:56 62° SW 06:36:08 10° SSE
Cosmos 1633 2.6 06:28:23 10° SSW 06:32:02 66° W 06:35:39 10° N
SL-08 R/B 3.3 06:27:39 10° S 06:32:23 79° WSW 06:37:02 10° NNW
ATLAS CENTAUR R/B 2.0 06:27:53 10° SSW 06:32:33 66° SE 06:36:52 10° NE
Cosmos 1538 Rocket 4.0 06:27:43 10° SSW 06:32:59 86° WNW 06:38:11 10° NNE
NOSS 3-1 (A) 4.3 06:24:56 10° NNW 06:33:21 71° ENE 06:40:55 10° SE
GEOS 3 Rocket 3.5 06:29:35 10° NNE 06:34:45 71° NW 06:39:52 10° SW
Meteor 1-20 Rocket 4.5 06:33:35 10° SSW 06:39:23 57° W 06:45:05 10° N
COSMOS 2487 4.3 06:37:25 10° WSW 06:39:38 16° W 06:41:41 11° NW
Okean 1-7 3.1 06:36:06 10° N 06:40:25 87° E 06:44:49 10° S
Sich 1 Rocket 3.8 06:38:09 10° SSW 06:42:33 53° W 06:46:52 10° N
Cosmos 2082 Rocket 4.1 06:43:46 10° WSW 06:45:23 11° W 06:47:00 10° WNW
SL-16 R/B 2.6 06:42:30 10° SSE 06:48:51 86° WSW 06:55:09 10° NNW
PAYLOAD B 4.3 06:46:34 10° N 06:52:09 74° WNW 06:57:47 10° SSW
APEX 2.8 06:54:31 10° SSW 06:58:12 65° WNW 07:01:12 10° NNE
ADEOS II 3.1 06:54:42 10° NNW 06:59:13 28° W 07:03:47 10° SW
PSLV R/B 4.3 06:55:45 10° NNW 06:59:22 39° W 07:02:59 10° SSW
Cosmos 405 Rocket 3.1 06:55:49 10° NNW 06:59:51 55° WSW 07:03:55 10° S
Cosmos 1782 Rocket 3.9 06:56:09 10° SSW 07:00:27 47° W 07:04:40 10° NNW
Meteor 1-27 Rocket 4.0 06:56:48 10° N 07:02:21 73° E 07:08:04 10° SSE
CZ-3 R/B 4.0 06:55:39 10° WNW 07:27:23 42° NNW 07:36:04 10° NE
